Weather History for KLSE - May, 2013

Change the Weather History Date:

Sunday, May 12, 2013

  Actual Average Record
Temperature  
Mean Temperature 48 °F 58 °F  
Max Temperature 57 °F 70 °F 90 °F (1940)
Min Temperature 39 °F 48 °F 31 °F (1967)
Degree Days  
Heating Degree Days 17 7  
Month to date heating degree days 154 105  
Since 1 July heating degree days 7348 7057  
Cooling Degree Days 0 1  
Month to date cooling degree days 0 10  
Year to date cooling degree days 4 17  
Moisture  
Dew Point 23 °F    
Average Humidity 45    
Maximum Humidity 64    
Minimum Humidity 26    
Precipitation  
Precipitation 0.00 in 0.10 in 0.95 in (1970)
Month to date precipitation 1.83 1.34  
Year to date precipitation 12.27 8.89  
Snow  
Snow 0.00 in 0.00 in 0.00 in (2002)
Month to date snowfall 0.8 0.1  
Since 1 July snowfall 60.6 43.4  
Snow Depth 0.00 in    
Sea Level Pressure  
Sea Level Pressure 30.14 in    
Wind  
Wind Speed 11 mph (NW)    
Max Wind Speed 21 mph    
Max Gust Speed 25 mph    
Visibility 10 miles    
Events      
T = Trace of Precipitation, MM = Missing Value Source: NWS Daily Summary

Daily Weather History Graph

Daily Weather History Graph

Search for Another Location

Airport or City:

Trip Planner

Search our weather history database for the weather conditions in past years. The results will help you decide how hot, cold, wet, or windy it might be!

Date:

Astronomy

May. 12, 2013 Rise Set
Actual Time 5:42 AM CDT 8:21 PM CDT
Civil Twilight 5:09 AM CDT 8:54 PM CDT
Nautical Twilight 4:28 AM CDT 9:35 PM CDT
Astronomical Twilight 3:40 AM CDT 10:23 PM CDT
Moon 7:36 AM CDT (5/12) 10:49 PM CDT (5/12)
Length of Visible Light 15h 44m
Length of Day
14h 38m
Waxing Crescent, 7% of the Moon is Illuminated
May 12
Waxing Crescent
May 17
First Quarter
May 24
Full
May 31
Last Quarter
Jun 8
New

Hourly Weather History & Observations

Time (CDT) Temp. Windchill Dew Point Humidity Pressure Visibility Wind Dir Wind Speed Gust Speed Precip Events Conditions
12:53 AM 44.1 °F 37.4 °F 24.1 °F 45% 30.13 in 10.0 mi NW 13.8 mph - N/A   Clear
1:53 AM 43.0 °F 36.0 °F 24.1 °F 47% 30.13 in 10.0 mi NNW 13.8 mph - N/A   Partly Cloudy
2:53 AM 41.0 °F 33.9 °F 24.1 °F 51% 30.14 in 10.0 mi NNW 12.7 mph - N/A   Clear
3:53 AM 39.9 °F 33.4 °F 24.1 °F 53% 30.14 in 10.0 mi NNW 10.4 mph - N/A   Clear
4:53 AM 39.9 °F 32.5 °F 24.1 °F 53% 30.14 in 10.0 mi NNW 12.7 mph 20.7 mph N/A   Clear
5:53 AM 39.0 °F 31.0 °F 21.9 °F 50% 30.17 in 10.0 mi NNW 13.8 mph - N/A   Clear
6:53 AM 39.9 °F 31.8 °F 21.0 °F 47% 30.18 in 10.0 mi NNW 15.0 mph 21.9 mph N/A   Clear
7:53 AM 42.1 °F 34.5 °F 21.9 °F 45% 30.19 in 10.0 mi NW 15.0 mph - N/A   Clear
8:53 AM 44.1 °F 36.2 °F 21.9 °F 42% 30.19 in 10.0 mi NW 18.4 mph - N/A   Clear
9:53 AM 46.0 °F 40.6 °F 21.9 °F 39% 30.19 in 10.0 mi NW 11.5 mph - N/A   Clear
10:53 AM 48.0 °F - 19.9 °F 33% 30.19 in 10.0 mi NW 13.8 mph - N/A   Clear
11:53 AM 50.0 °F - 19.9 °F 31% 30.18 in 10.0 mi WNW 13.8 mph - N/A   Clear
12:53 PM 52.0 °F - 21.9 °F 31% 30.16 in 10.0 mi WNW 13.8 mph - N/A   Clear
1:53 PM 54.0 °F - 21.9 °F 29% 30.14 in 10.0 mi WNW 13.8 mph - N/A   Clear
2:53 PM 55.0 °F - 21.0 °F 27% 30.14 in 10.0 mi NW 12.7 mph 19.6 mph N/A   Clear
3:53 PM 55.0 °F - 21.9 °F 28% 30.12 in 10.0 mi NW 10.4 mph 19.6 mph N/A   Clear
4:53 PM 55.9 °F - 21.9 °F 27% 30.11 in 10.0 mi NW 16.1 mph 21.9 mph N/A   Clear
5:53 PM 55.9 °F - 21.9 °F 27% 30.10 in 10.0 mi NW 11.5 mph 20.7 mph N/A   Clear
6:53 PM 55.9 °F - 21.9 °F 27% 30.09 in 10.0 mi WNW 16.1 mph - N/A   Clear
7:53 PM 53.1 °F - 21.9 °F 30% 30.10 in 10.0 mi WNW 8.1 mph - N/A   Clear
8:53 PM 50.0 °F - 24.1 °F 36% 30.10 in 10.0 mi NNW 4.6 mph - N/A   Clear
9:53 PM 46.9 °F - 23.0 °F 39% 30.12 in 10.0 mi Calm Calm - N/A   Clear
10:53 PM 45.0 °F - 25.0 °F 46% 30.13 in 10.0 mi Calm Calm - N/A   Clear
11:53 PM 39.9 °F - 28.9 °F 65% 30.13 in 10.0 mi Calm Calm - N/A   Clear